Weather History for Adak, AK

Change the Weather History Date:

Friday, December 7, 2012

  Actual Average Record
Temperature  
Mean Temperature 30 °F -  
Max Temperature 32 °F 37 °F 55 °F (1950)
Min Temperature 28 °F 28 °F 18 °F (1975)
Degree Days  
Heating Degree Days 35    
Moisture  
Dew Point 23 °F    
Average Humidity 75    
Maximum Humidity 93    
Minimum Humidity 53    
Precipitation  
Precipitation 0.00 in - - ()
Sea Level Pressure  
Sea Level Pressure 29.49 in    
Wind  
Wind Speed 26 mph (NNE)    
Max Wind Speed 39 mph    
Max Gust Speed 54 mph    
Visibility 8 miles    
Events      
Averages and records for this station are not official NWS values.
T = Trace of Precipitation, MM = Missing Value Source: NWS Daily Summary

Daily Weather History Graph

Daily Weather History Graph

Search for Another Location

Airport:

Trip Planner

Search our weather history database for the weather conditions in past years. The results will help you decide how hot, cold, wet, or windy it might be!

Date:

Astronomy

Dec. 07, 2012 Rise Set
Actual Time 9:40 AM HAST 5:36 PM HAST
Civil Twilight 9:00 AM HAST 6:16 PM HAST
Nautical Twilight 8:17 AM HAST 6:59 PM HAST
Astronomical Twilight 7:36 AM HAST 7:40 PM HAST
Moon 2:35 AM HAST (12/7) 2:16 PM HAST (12/7)
Length of Visible Light 9h 16m
Length of Day
7h 55m
Last Quarter, 36% of the Moon is Illuminated
Dec 7
Last Quarter
Dec 12
New
Dec 19
First Quarter
Dec 28
Full
Jan 4
Last Quarter

Hourly Weather History & Observations

Time (HAST) Temp. Windchill Dew Point Humidity Pressure Visibility Wind Dir Wind Speed Gust Speed Precip Events Conditions
12:16 AM 30.2 °F 17.4 °F 24.8 °F 80% 29.79 in 5.0 mi NE 20.7 mph - N/A   Mostly Cloudy
12:36 AM 30.2 °F 18.1 °F 24.8 °F 80% 29.78 in 10.0 mi NNE 18.4 mph 26.5 mph N/A   Mostly Cloudy
12:56 AM 30.2 °F 17.8 °F 24.8 °F 80% 29.77 in 10.0 mi NNE 19.6 mph 27.6 mph N/A   Mostly Cloudy
1:16 AM 30.2 °F 17.8 °F 26.6 °F 86% 29.77 in 8.0 mi NNE 19.6 mph 28.8 mph N/A   Mostly Cloudy
1:36 AM 32.0 °F 18.4 °F 26.6 °F 80% 29.76 in 9.0 mi NE 26.5 mph 35.7 mph N/A   Mostly Cloudy
1:56 AM 30.2 °F 16.8 °F 24.8 °F 80% 29.76 in 10.0 mi NNE 23.0 mph 31.1 mph N/A   Overcast
2:16 AM 30.2 °F 17.1 °F 23.0 °F 75% 29.75 in 10.0 mi NNE 21.9 mph 29.9 mph N/A   Mostly Cloudy
2:36 AM 32.0 °F 19.8 °F 21.2 °F 64% 29.74 in 10.0 mi NNE 20.7 mph 26.5 mph N/A   Overcast
2:56 AM 30.2 °F 17.4 °F 21.2 °F 69% 29.74 in 10.0 mi NNE 20.7 mph 26.5 mph N/A   Overcast
3:16 AM 30.2 °F 18.5 °F 19.4 °F 64% 29.73 in 10.0 mi NNE 17.3 mph 23.0 mph N/A   Overcast
3:36 AM 32.0 °F 18.6 °F 23.0 °F 69% 29.73 in 10.0 mi NE 25.3 mph 34.5 mph N/A   Overcast
3:56 AM 30.2 °F 16.8 °F 24.8 °F 80% 29.73 in 6.0 mi NE 23.0 mph 29.9 mph N/A   Mostly Cloudy
4:16 AM 30.2 °F 17.4 °F 24.8 °F 80% 29.72 in 10.0 mi NNE 20.7 mph 32.2 mph N/A   Mostly Cloudy
4:36 AM 30.2 °F 16.8 °F 23.0 °F 75% 29.71 in 10.0 mi NNE 23.0 mph 28.8 mph N/A   Mostly Cloudy
4:56 AM 30.2 °F 17.1 °F 21.2 °F 69% 29.71 in 10.0 mi NNE 21.9 mph 35.7 mph N/A   Overcast
5:16 AM 28.4 °F 15.1 °F 23.0 °F 80% 29.70 in 9.0 mi NNE 20.7 mph 27.6 mph N/A   Overcast
5:36 AM 30.2 °F 17.1 °F 21.2 °F 69% 29.69 in 8.0 mi NNE 21.9 mph 35.7 mph N/A   Mostly Cloudy
5:56 AM 30.2 °F 14.7 °F 21.2 °F 69% 29.69 in 10.0 mi NE 32.2 mph 36.8 mph N/A   Overcast
6:16 AM 30.2 °F 16.5 °F 21.2 °F 69% 29.68 in 10.0 mi NE 24.2 mph 36.8 mph N/A   Mostly Cloudy
6:36 AM 30.2 °F 15.4 °F 23.0 °F 75% 29.67 in 10.0 mi NE 28.8 mph 35.7 mph N/A   Mostly Cloudy
6:56 AM 30.2 °F 15.2 °F 19.4 °F 64% 29.66 in 10.0 mi NE 29.9 mph 39.1 mph N/A   Overcast
7:16 AM 30.2 °F 15.7 °F 21.2 °F 69% 29.66 in 10.0 mi NNE 27.6 mph 36.8 mph N/A   Mostly Cloudy
7:36 AM 30.2 °F 15.9 °F 23.0 °F 75% 29.65 in 10.0 mi NE 26.5 mph 33.4 mph N/A   Mostly Cloudy
7:56 AM 28.4 °F 14.4 °F 24.8 °F 86% 29.64 in 3.0 mi NNE 23.0 mph 32.2 mph N/A   Mostly Cloudy
8:16 AM 30.2 °F 15.2 °F 24.8 °F 80% 29.64 in 1.2 mi NE 29.9 mph 40.3 mph N/A   Overcast
8:36 AM 28.4 °F 13.0 °F 26.6 °F 93% 29.63 in 1.2 mi NE 28.8 mph 39.1 mph N/A   Overcast
8:56 AM 28.4 °F 13.0 °F 21.2 °F 74% 29.63 in 10.0 mi NNE 28.8 mph 40.3 mph N/A   Overcast
9:16 AM 30.2 °F 15.2 °F 21.2 °F 69% 29.62 in 10.0 mi NE 29.9 mph 36.8 mph N/A   Overcast
9:36 AM 30.2 °F 14.3 °F 21.2 °F 69% 29.62 in 3.0 mi NE 34.5 mph 42.6 mph N/A   Overcast
9:56 AM 28.4 °F 12.5 °F 23.0 °F 80% 29.61 in 2.5 mi NE 31.1 mph 39.1 mph N/A   Overcast
10:16 AM 30.2 °F 15.2 °F 21.2 °F 69% 29.61 in 10.0 mi NE 29.9 mph 41.4 mph N/A   Overcast
10:36 AM 30.2 °F 15.2 °F 21.2 °F 69% 29.60 in 10.0 mi NE 29.9 mph 40.3 mph N/A   Overcast
10:56 AM 30.2 °F 14.5 °F 21.2 °F 69% 29.58 in 2.5 mi NE 33.4 mph - N/A   Overcast
11:16 AM 30.2 °F 15.7 °F 19.4 °F 64% 29.57 in 10.0 mi NNE 27.6 mph 42.6 mph N/A   Overcast
11:36 AM 28.4 °F 12.5 °F 21.2 °F 74% 29.55 in 6.0 mi NNE 31.1 mph 38.0 mph N/A   Mostly Cloudy
11:56 AM 30.2 °F 14.7 °F 19.4 °F 64% 29.55 in 10.0 mi NE 32.2 mph 39.1 mph N/A   Overcast
12:16 PM 30.2 °F 14.9 °F 21.2 °F 69% 29.53 in 10.0 mi NNE 31.1 mph 40.3 mph N/A   Overcast
12:36 PM 30.2 °F 14.7 °F 19.4 °F 64% 29.52 in 10.0 mi NNE 32.2 mph 40.3 mph N/A   Overcast
12:56 PM 30.2 °F 15.9 °F 21.2 °F 69% 29.51 in 10.0 mi NNE 26.5 mph 40.3 mph N/A   Overcast
1:16 PM 30.2 °F 14.9 °F 21.2 °F 69% 29.50 in 10.0 mi NNE 31.1 mph 36.8 mph N/A   Overcast
1:36 PM 30.2 °F 16.5 °F 21.2 °F 69% 29.49 in 10.0 mi NNE 24.2 mph 40.3 mph N/A   Overcast
1:56 PM 30.2 °F 15.2 °F 19.4 °F 64% 29.47 in 10.0 mi NNE 29.9 mph 40.3 mph N/A   Overcast
2:16 PM 30.2 °F 16.2 °F 21.2 °F 69% 29.45 in 7.0 mi NNE 25.3 mph 39.1 mph N/A   Overcast
2:36 PM 28.4 °F 13.5 °F 21.2 °F 74% 29.44 in 10.0 mi NNE 26.5 mph 38.0 mph N/A   Overcast
2:56 PM 30.2 °F 14.9 °F 21.2 °F 69% 29.42 in 10.0 mi NNE 31.1 mph 40.3 mph N/A   Overcast
3:16 PM 30.2 °F 15.2 °F 21.2 °F 69% 29.41 in 10.0 mi NNE 29.9 mph 42.6 mph N/A   Overcast
3:36 PM 28.4 °F 12.7 °F 24.8 °F 86% 29.38 in 3.0 mi NNE 29.9 mph 41.4 mph N/A   Overcast
3:56 PM 28.4 °F 12.5 °F 23.0 °F 80% 29.37 in 9.0 mi NNE 31.1 mph 41.4 mph N/A   Overcast
4:16 PM 28.4 °F 11.6 °F 23.0 °F 80% 29.35 in 8.0 mi NNE 35.7 mph 46.0 mph N/A   Overcast
4:36 PM 30.2 °F 13.9 °F 23.0 °F 75% 29.34 in 10.0 mi NNE 36.8 mph 50.6 mph N/A   Overcast
4:56 PM 30.2 °F 14.3 °F 23.0 °F 75% 29.33 in 8.0 mi NNE 34.5 mph 50.6 mph N/A   Overcast
5:16 PM 30.2 °F 14.5 °F 24.8 °F 80% 29.32 in 8.0 mi NNE 33.4 mph 49.5 mph N/A   Overcast
5:36 PM 30.2 °F 14.3 °F 23.0 °F 75% 29.31 in 7.0 mi NNE 34.5 mph 44.9 mph N/A   Overcast
5:56 PM 30.2 °F 13.7 °F 23.0 °F 75% 29.30 in 9.0 mi NNE 38.0 mph 50.6 mph N/A   Overcast
6:16 PM 28.4 °F 11.2 °F 24.8 °F 86% 29.29 in 7.0 mi NNE 38.0 mph 46.0 mph N/A   Overcast
6:36 PM 28.4 °F 12.0 °F 24.8 °F 86% 29.28 in 6.0 mi NNE 33.4 mph 43.7 mph N/A   Overcast
6:56 PM 30.2 °F 14.3 °F 23.0 °F 75% 29.26 in 8.0 mi NNE 34.5 mph 47.2 mph N/A   Overcast
7:16 PM 30.2 °F 15.2 °F 23.0 °F 75% 29.26 in 10.0 mi NNE 29.9 mph 47.2 mph N/A   Overcast
7:36 PM 30.2 °F 14.7 °F 23.0 °F 75% 29.24 in 10.0 mi NNE 32.2 mph 44.9 mph N/A   Overcast
7:56 PM 30.2 °F 13.7 °F 23.0 °F 75% 29.23 in 10.0 mi NNE 38.0 mph 44.9 mph N/A   Overcast
8:16 PM 30.2 °F 13.7 °F 23.0 °F 75% 29.21 in 9.0 mi NNE 38.0 mph 48.3 mph N/A   Overcast
8:36 PM 30.2 °F 13.5 °F 24.8 °F 80% 29.20 in 5.0 mi NNE 39.1 mph 47.2 mph N/A   Overcast
8:56 PM 30.2 °F 14.9 °F 24.8 °F 80% 29.18 in 2.5 mi NNE 31.1 mph 46.0 mph N/A   Overcast
9:16 PM 30.2 °F 13.9 °F 24.8 °F 80% 29.16 in 3.0 mi NNE 36.8 mph 54.1 mph N/A   Overcast
9:36 PM 30.2 °F 14.5 °F 24.8 °F 80% 29.15 in 1.5 mi NNE 33.4 mph 54.1 mph N/A   Overcast
9:56 PM 30.2 °F 13.9 °F 24.8 °F 80% 29.13 in 1.2 mi NNE 36.8 mph 47.2 mph N/A   Overcast
10:16 PM 28.4 °F 11.4 °F 26.6 °F 93% 29.12 in 0.8 mi NNE 36.8 mph 43.7 mph N/A   Overcast
10:36 PM 28.4 °F 11.4 °F 26.6 °F 93% 29.10 in 0.5 mi NNE 36.8 mph 43.7 mph N/A   Overcast
10:56 PM 30.2 °F 13.5 °F 24.8 °F 80% 29.09 in 4.0 mi NNE 39.1 mph 48.3 mph N/A   Overcast
11:16 PM 30.2 °F 13.9 °F 24.8 °F 80% 29.08 in 5.0 mi NNE 36.8 mph 44.9 mph N/A   Overcast
11:36 PM 30.2 °F 13.9 °F 24.8 °F 80% 29.06 in 3.0 mi NNE 36.8 mph 46.0 mph N/A   Overcast
11:56 PM 30.2 °F 13.5 °F 26.6 °F 86% 29.05 in 0.8 mi NNE 39.1 mph 47.2 mph N/A   Overcast